| time (UTC) | temp F | wind direction | speed MPH | gust MPH | rain 1hr in | rain 24hr in | rain mn in | humidity % | barometer mb |
| 20260906165003 | 90 | 195 | 2.0 | 8.0 | 0.00 | 0.00 | 0.00 | 65 | 1015.4 |
| 20260906164503 | 90 | 177 | 2.0 | 6.0 | 0.00 | 0.00 | 0.00 | 64 | 1015.4 |
| 20260906164004 | 90 | 151 | 2.0 | 6.0 | 0.00 | 0.00 | 0.00 | 64 | 1015.4 |
| 20260906163503 | 90 | 360 | 1.0 | 5.0 | 0.00 | 0.00 | 0.00 | 64 | 1015.5 |
| 20260906163003 | 89 | 291 | 2.0 | 5.0 | 0.00 | 0.00 | 0.00 | 65 | 1015.5 |
| 20260906162525 | 89 | 290 | 4.0 | 7.0 | 0.00 | 0.00 | 0.00 | 66 | 1015.5 |
| 20260906162003 | 89 | 337 | 4.0 | 7.0 | 0.00 | 0.00 | 0.00 | 68 | 1015.5 |
| 20260906161503 | 88 | 20 | 4.0 | 8.0 | 0.00 | 0.00 | 0.00 | 69 | 1015.5 |
| 20260906161003 | 88 | 32 | 4.0 | 8.0 | 0.00 | 0.00 | 0.00 | 70 | 1015.6 |
| 20260906160503 | 88 | 22 | 2.0 | 7.0 | 0.00 | 0.00 | 0.00 | 70 | 1015.6 |
| 20260906160004 | 88 | 93 | 2.0 | 6.0 | 0.00 | 0.00 | 0.00 | 71 | 1015.6 |
| 20260906155524 | 88 | 134 | 2.0 | 6.0 | 0.00 | 0.00 | 0.00 | 70 | 1015.7 |
| 20260906155024 | 88 | 126 | 1.0 | 6.0 | 0.00 | 0.00 | 0.00 | 71 | 1015.6 |
| 20260906154525 | 88 | 115 | 2.0 | 10.0 | 0.00 | 0.00 | 0.00 | 71 | 1015.7 |
| 20260906154024 | 87 | 109 | 4.0 | 10.0 | 0.00 | 0.00 | 0.00 | 72 | 1015.7 |
| 20260906153503 | 87 | 114 | 4.0 | 8.0 | 0.00 | 0.00 | 0.00 | 73 | 1015.7 |
| 20260906153003 | 87 | 123 | 4.0 | 8.0 | 0.00 | 0.00 | 0.00 | 73 | 1015.6 |
| 20260906152503 | 86 | 125 | 4.0 | 8.0 | 0.00 | 0.00 | 0.00 | 74 | 1015.5 |
| 20260906152003 | 86 | 118 | 5.0 | 11.0 | 0.00 | 0.00 | 0.00 | 75 | 1015.5 |
| 20260906151504 | 86 | 130 | 5.0 | 11.0 | 0.00 | 0.00 | 0.00 | 76 | 1015.5 |
| 20260906151003 | 85 | 172 | 5.0 | 10.0 | 0.00 | 0.00 | 0.00 | 76 | 1015.4 |
| 20260906150503 | 85 | 188 | 5.0 | 10.0 | 0.00 | 0.00 | 0.00 | 79 | 1015.4 |
| 20260906150003 | 84 | 175 | 5.0 | 12.0 | 0.00 | 0.00 | 0.00 | 79 | 1015.4 |
| 20260906145503 | 84 | 157 | 5.0 | 12.0 | 0.00 | 0.00 | 0.00 | 80 | 1015.3 |
| 20260906145004 | 83 | 140 | 5.0 | 11.0 | 0.00 | 0.00 | 0.00 | 82 | 1015.3 |
| 20260906144524 | 83 | 147 | 4.0 | 10.0 | 0.00 | 0.00 | 0.00 | 83 | 1015.3 |
| 20260906144003 | 82 | 165 | 5.0 | 8.0 | 0.00 | 0.00 | 0.00 | 83 | 1015.3 |
| 20260906143503 | 82 | 154 | 5.0 | 8.0 | 0.00 | 0.00 | 0.00 | 84 | 1015.3 |
| 20260906143003 | 82 | 142 | 4.0 | 8.0 | 0.00 | 0.00 | 0.00 | 84 | 1015.3 |
| 20260906142503 | 82 | 152 | 4.0 | 8.0 | 0.00 | 0.00 | 0.00 | 84 | 1015.3 |
| 20260906142003 | 82 | 162 | 4.0 | 7.0 | 0.00 | 0.00 | 0.00 | 85 | 1015.2 |
| 20260906141503 | 82 | 157 | 4.0 | 7.0 | 0.00 | 0.00 | 0.00 | 85 | 1015.1 |
| 20260906141024 | 81 | 141 | 4.0 | 6.0 | 0.00 | 0.00 | 0.00 | 86 | 1015.1 |
| 20260906140503 | 81 | 141 | 2.0 | 6.0 | 0.00 | 0.00 | 0.00 | 86 | 1015.2 |
| 20260906140003 | 81 | 159 | 2.0 | 6.0 | 0.00 | 0.00 | 0.00 | 86 | 1015.2 |
| 20260906135524 | 81 | 163 | 2.0 | 6.0 | 0.00 | 0.00 | 0.00 | 87 | 1015.2 |
| 20260906135003 | 80 | 165 | 4.0 | 8.0 | 0.00 | 0.00 | 0.00 | 87 | 1015.1 |
| 20260906134503 | 80 | 176 | 5.0 | 8.0 | 0.00 | 0.00 | 0.00 | 88 | 1015.1 |
| 20260906134003 | 80 | 184 | 5.0 | 8.0 | 0.00 | 0.00 | 0.00 | 88 | 1015.0 |
| 20260906133524 | 80 | 173 | 4.0 | 8.0 | 0.00 | 0.00 | 0.00 | 88 | 1015.1 |
| 20260906133003 | 79 | 155 | 4.0 | 8.0 | 0.00 | 0.00 | 0.00 | 89 | 1015.0 |
| 20260906132503 | 79 | 152 | 2.0 | 5.0 | 0.00 | 0.00 | 0.00 | 89 | 1015.0 |
| 20260906132003 | 79 | 153 | 2.0 | 7.0 | 0.00 | 0.00 | 0.00 | 89 | 1014.9 |
| 20260906131503 | 78 | 154 | 4.0 | 7.0 | 0.00 | 0.00 | 0.00 | 89 | 1015.0 |
| 20260906131003 | 78 | 147 | 4.0 | 7.0 | 0.00 | 0.00 | 0.00 | 88 | 1014.8 |
| 20260906130503 | 78 | 134 | 2.0 | 6.0 | 0.00 | 0.00 | 0.00 | 88 | 1014.6 |
| 20260906130004 | 77 | 155 | 2.0 | 6.0 | 0.00 | 0.00 | 0.00 | 87 | 1014.6 |
| 20260906125525 | 77 | 176 | 1.0 | 5.0 | 0.00 | 0.00 | 0.00 | 85 | 1014.5 |
| 20260906125025 | 77 | 177 | 1.0 | 5.0 | 0.00 | 0.00 | 0.00 | 84 | 1014.5 |
| 20260906124504 | 77 | 177 | 0.0 | 1.0 | 0.00 | 0.00 | 0.00 | 84 | 1014.3 |
| 20260906124004 | 77 | 0 | 0.0 | 0.0 | 0.00 | 0.00 | 0.00 | 84 | 1014.2 |
| 20260906123504 | 77 | 0 | 0.0 | 0.0 | 0.00 | 0.00 | 0.00 | 84 | 1014.2 |
| 20260906123004 | 77 | 0 | 0.0 | 0.0 | 0.00 | 0.00 | 0.00 | 84 | 1014.0 |
| 20260906122504 | 77 | 0 | 0.0 | 0.0 | 0.00 | 0.00 | 0.00 | 83 | 1014.0 |
| 20260906122004 | 77 | 177 | 0.0 | 1.0 | 0.00 | 0.00 | 0.00 | 83 | 1013.9 |
| 20260906121504 | 77 | 177 | 0.0 | 1.0 | 0.00 | 0.00 | 0.00 | 83 | 1013.9 |
| 20260906121025 | 77 | 177 | 0.0 | 1.0 | 0.00 | 0.00 | 0.00 | 83 | 1013.8 |
| 20260906120504 | 77 | 177 | 0.0 | 1.0 | 0.00 | 0.00 | 0.00 | 83 | 1013.7 |
| 20260906120004 | 77 | 177 | 0.0 | 1.0 | 0.00 | 0.00 | 0.00 | 82 | 1013.6 |
| 20260906115504 | 78 | 177 | 0.0 | 1.0 | 0.00 | 0.00 | 0.00 | 83 | 1013.6 |
| 20260906115004 | 78 | 177 | 0.0 | 1.0 | 0.00 | 0.00 | 0.00 | 83 | 1013.6 |
| 20260906114504 | 78 | 177 | 0.0 | 1.0 | 0.00 | 0.00 | 0.00 | 82 | 1013.5 |
| 20260906114004 | 78 | 0 | 0.0 | 0.0 | 0.00 | 0.00 | 0.00 | 82 | 1013.4 |
| 20260906113504 | 78 | 0 | 0.0 | 0.0 | 0.00 | 0.00 | 0.00 | 82 | 1013.3 |
| 20260906113004 | 78 | 177 | 0.0 | 1.0 | 0.00 | 0.00 | 0.00 | 82 | 1013.1 |
| 20260906112504 | 78 | 177 | 0.0 | 1.0 | 0.00 | 0.00 | 0.00 | 82 | 1013.1 |
| 20260906112004 | 78 | 0 | 0.0 | 0.0 | 0.00 | 0.00 | 0.00 | 82 | 1013.0 |
| 20260906111504 | 78 | 177 | 0.0 | 1.0 | 0.00 | 0.00 | 0.00 | 82 | 1012.9 |
| 20260906111025 | 78 | 177 | 0.0 | 1.0 | 0.00 | 0.00 | 0.00 | 82 | 1012.9 |
| 20260906110504 | 78 | 177 | 0.0 | 2.0 | 0.00 | 0.00 | 0.00 | 82 | 1012.8 |
| 20260906110004 | 79 | 177 | 0.0 | 2.0 | 0.00 | 0.00 | 0.00 | 82 | 1012.8 |
| 20260906105504 | 79 | 177 | 0.0 | 1.0 | 0.00 | 0.00 | 0.00 | 82 | 1012.7 |
| 20260906105025 | 79 | 177 | 0.0 | 1.0 | 0.00 | 0.00 | 0.00 | 82 | 1012.7 |
| 20260906104504 | 79 | 0 | 0.0 | 0.0 | 0.00 | 0.00 | 0.00 | 82 | 1012.5 |
| 20260906104004 | 79 | 0 | 0.0 | 0.0 | 0.00 | 0.00 | 0.00 | 82 | 1012.4 |
| 20260906103524 | 79 | 0 | 0.0 | 0.0 | 0.00 | 0.00 | 0.00 | 82 | 1012.5 |
| 20260906103004 | 79 | 0 | 0.0 | 0.0 | 0.00 | 0.00 | 0.00 | 82 | 1012.5 |
| 20260906102504 | 79 | 0 | 0.0 | 0.0 | 0.00 | 0.00 | 0.00 | 81 | 1012.5 |
| 20260906102004 | 79 | 0 | 0.0 | 0.0 | 0.00 | 0.00 | 0.00 | 81 | 1012.5 |
| 20260906101504 | 79 | 177 | 0.0 | 1.0 | 0.00 | 0.00 | 0.00 | 81 | 1012.5 |
| 20260906101025 | 79 | 177 | 1.0 | 2.0 | 0.00 | 0.00 | 0.00 | 81 | 1012.5 |
| 20260906100503 | 79 | 177 | 2.0 | 4.0 | 0.00 | 0.00 | 0.00 | 81 | 1012.5 |
| 20260906100004 | 79 | 177 | 2.0 | 4.0 | 0.00 | 0.00 | 0.00 | 81 | 1012.6 |
| 20260906095504 | 79 | 177 | 1.0 | 4.0 | 0.00 | 0.00 | 0.00 | 80 | 1012.7 |
| 20260906095004 | 79 | 177 | 1.0 | 2.0 | 0.00 | 0.00 | 0.00 | 80 | 1012.7 |
| 20260906094504 | 79 | 177 | 1.0 | 2.0 | 0.00 | 0.00 | 0.00 | 80 | 1012.7 |
| 20260906094004 | 79 | 177 | 1.0 | 2.0 | 0.00 | 0.00 | 0.00 | 80 | 1012.8 |
| 20260906093504 | 79 | 177 | 1.0 | 2.0 | 0.00 | 0.00 | 0.00 | 80 | 1012.8 |
| 20260906093004 | 80 | 177 | 1.0 | 2.0 | 0.00 | 0.00 | 0.00 | 80 | 1012.8 |
| 20260906092504 | 80 | 177 | 1.0 | 2.0 | 0.00 | 0.00 | 0.00 | 80 | 1012.9 |
| 20260906092004 | 80 | 177 | 1.0 | 2.0 | 0.00 | 0.00 | 0.00 | 79 | 1012.8 |
| 20260906091504 | 80 | 177 | 1.0 | 2.0 | 0.00 | 0.00 | 0.00 | 79 | 1012.9 |
| 20260906091004 | 80 | 177 | 1.0 | 2.0 | 0.00 | 0.00 | 0.00 | 79 | 1012.7 |
| 20260906090504 | 80 | 177 | 1.0 | 2.0 | 0.00 | 0.00 | 0.00 | 79 | 1012.6 |
| 20260906090004 | 80 | 177 | 1.0 | 2.0 | 0.00 | 0.00 | 0.00 | 79 | 1012.7 |
| 20260906085504 | 80 | 177 | 1.0 | 2.0 | 0.00 | 0.00 | 0.00 | 78 | 1012.7 |
| 20260906085004 | 80 | 177 | 1.0 | 2.0 | 0.00 | 0.00 | 0.00 | 78 | 1012.6 |
| 20260906084525 | 81 | 177 | 1.0 | 2.0 | 0.00 | 0.00 | 0.00 | 78 | 1012.6 |
| 20260906084025 | 81 | 177 | 1.0 | 4.0 | 0.00 | 0.00 | 0.00 | 78 | 1012.6 |
| 20260906083504 | 81 | 177 | 2.0 | 4.0 | 0.00 | 0.00 | 0.00 | 78 | 1012.6 |
| 20260906083004 | 81 | 177 | 2.0 | 4.0 | 0.00 | 0.00 | 0.00 | 78 | 1012.6 |
| 20260906082504 | 81 | 177 | 1.0 | 4.0 | 0.00 | 0.00 | 0.00 | 78 | 1012.7 |
| 20260906082004 | 81 | 177 | 1.0 | 5.0 | 0.00 | 0.00 | 0.00 | 78 | 1012.8 |
| 20260906081504 | 81 | 177 | 2.0 | 6.0 | 0.00 | 0.00 | 0.00 | 78 | 1012.8 |
| 20260906081025 | 81 | 179 | 2.0 | 6.0 | 0.00 | 0.00 | 0.00 | 77 | 1012.8 |
| 20260906080504 | 82 | 182 | 2.0 | 5.0 | 0.00 | 0.00 | 0.00 | 77 | 1012.9 |
| 20260906080004 | 82 | 180 | 2.0 | 6.0 | 0.00 | 0.00 | 0.00 | 77 | 1012.9 |
| 20260906075503 | 82 | 177 | 2.0 | 6.0 | 0.00 | 0.00 | 0.00 | 77 | 1013.0 |
| 20260906075004 | 82 | 176 | 2.0 | 5.0 | 0.00 | 0.00 | 0.00 | 77 | 1013.1 |
| 20260906074504 | 82 | 178 | 4.0 | 6.0 | 0.00 | 0.00 | 0.00 | 77 | 1013.1 |
| 20260906074025 | 82 | 184 | 4.0 | 7.0 | 0.00 | 0.00 | 0.00 | 77 | 1013.2 |
| 20260906073504 | 82 | 189 | 4.0 | 7.0 | 0.00 | 0.00 | 0.00 | 76 | 1013.3 |
| 20260906073004 | 82 | 192 | 4.0 | 7.0 | 0.00 | 0.00 | 0.00 | 76 | 1013.3 |
| 20260906072503 | 82 | 187 | 4.0 | 7.0 | 0.00 | 0.00 | 0.00 | 76 | 1013.3 |
| 20260906072004 | 83 | 172 | 4.0 | 6.0 | 0.00 | 0.00 | 0.00 | 75 | 1013.3 |
| 20260906071504 | 83 | 167 | 4.0 | 6.0 | 0.00 | 0.00 | 0.00 | 75 | 1013.4 |
| 20260906071003 | 83 | 170 | 4.0 | 6.0 | 0.00 | 0.00 | 0.00 | 75 | 1013.5 |
| 20260906070504 | 83 | 172 | 4.0 | 6.0 | 0.00 | 0.00 | 0.00 | 75 | 1013.5 |
| 20260906070004 | 83 | 168 | 4.0 | 7.0 | 0.00 | 0.00 | 0.00 | 75 | 1013.5 |
| 20260906065504 | 83 | 169 | 4.0 | 8.0 | 0.00 | 0.00 | 0.00 | 75 | 1013.6 |
| 20260906065003 | 83 | 173 | 5.0 | 10.0 | 0.00 | 0.00 | 0.00 | 75 | 1013.7 |
| 20260906064524 | 83 | 174 | 6.0 | 10.0 | 0.00 | 0.00 | 0.00 | 75 | 1013.6 |
| 20260906064025 | 83 | 174 | 5.0 | 10.0 | 0.00 | 0.00 | 0.00 | 74 | 1013.7 |
| 20260906063503 | 84 | 173 | 5.0 | 8.0 | 0.00 | 0.00 | 0.00 | 74 | 1013.7 |
| 20260906063003 | 84 | 176 | 5.0 | 8.0 | 0.00 | 0.00 | 0.00 | 74 | 1013.9 |
| 20260906062525 | 84 | 182 | 5.0 | 8.0 | 0.00 | 0.00 | 0.00 | 74 | 1013.9 |
| 20260906062003 | 84 | 175 | 5.0 | 11.0 | 0.00 | 0.00 | 0.00 | 73 | 1013.9 |
| 20260906061503 | 84 | 170 | 5.0 | 11.0 | 0.00 | 0.00 | 0.00 | 73 | 1013.9 |
| 20260906061025 | 84 | 173 | 5.0 | 11.0 | 0.00 | 0.00 | 0.00 | 73 | 1014.0 |
| 20260906060525 | 84 | 170 | 5.0 | 11.0 | 0.00 | 0.00 | 0.00 | 73 | 1013.9 |
| 20260906060004 | 84 | 169 | 5.0 | 10.0 | 0.00 | 0.00 | 0.00 | 73 | 1014.0 |
| 20260906055503 | 84 | 165 | 5.0 | 12.0 | 0.00 | 0.00 | 0.00 | 72 | 1013.9 |
| 20260906055004 | 84 | 168 | 5.0 | 12.0 | 0.00 | 0.00 | 0.00 | 72 | 1013.9 |
| 20260906054503 | 84 | 168 | 4.0 | 10.0 | 0.00 | 0.00 | 0.00 | 72 | 1013.9 |
| 20260906054024 | 84 | 158 | 4.0 | 8.0 | 0.00 | 0.00 | 0.00 | 72 | 1013.8 |
| 20260906053503 | 84 | 168 | 5.0 | 10.0 | 0.00 | 0.00 | 0.00 | 72 | 1013.8 |
| 20260906053003 | 85 | 177 | 5.0 | 10.0 | 0.00 | 0.00 | 0.00 | 71 | 1013.8 |
| 20260906052503 | 85 | 173 | 4.0 | 8.0 | 0.00 | 0.00 | 0.00 | 71 | 1013.8 |
| 20260906052004 | 85 | 175 | 5.0 | 10.0 | 0.00 | 0.00 | 0.00 | 71 | 1013.9 |
| 20260906051503 | 85 | 172 | 6.0 | 12.0 | 0.00 | 0.00 | 0.00 | 71 | 1013.8 |
| 20260906051003 | 85 | 167 | 6.0 | 12.0 | 0.00 | 0.00 | 0.00 | 70 | 1013.9 |
| 20260906050503 | 85 | 166 | 5.0 | 10.0 | 0.00 | 0.00 | 0.00 | 70 | 1013.9 |
| 20260906050004 | 85 | 162 | 5.0 | 10.0 | 0.00 | 0.00 | 0.00 | 70 | 1013.9 |
| 20260906045503 | 85 | 161 | 5.0 | 8.0 | 0.00 | 0.00 | 0.00 | 70 | 1013.9 |
| 20260906045003 | 86 | 163 | 6.0 | 10.0 | 0.00 | 0.00 | 0.00 | 69 | 1013.9 |
| 20260906044504 | 86 | 161 | 5.0 | 11.0 | 0.00 | 0.00 | 0.00 | 69 | 1013.9 |
| 20260906044003 | 86 | 158 | 5.0 | 11.0 | 0.00 | 0.00 | 0.00 | 69 | 1013.9 |
| 20260906043503 | 86 | 154 | 5.0 | 10.0 | 0.00 | 0.00 | 0.00 | 68 | 1014.0 |
| 20260906043003 | 86 | 152 | 5.0 | 10.0 | 0.00 | 0.00 | 0.00 | 69 | 1014.0 |
| 20260906042503 | 86 | 162 | 5.0 | 13.0 | 0.00 | 0.00 | 0.00 | 68 | 1013.9 |
| 20260906042003 | 86 | 159 | 6.0 | 13.0 | 0.00 | 0.00 | 0.00 | 68 | 1013.8 |
| 20260906041503 | 87 | 148 | 5.0 | 11.0 | 0.00 | 0.00 | 0.00 | 67 | 1013.9 |
| 20260906041024 | 87 | 140 | 5.0 | 11.0 | 0.00 | 0.00 | 0.00 | 67 | 1013.9 |
| 20260906040504 | 87 | 136 | 5.0 | 12.0 | 0.00 | 0.00 | 0.00 | 66 | 1013.9 |
| 20260906040003 | 87 | 135 | 5.0 | 11.0 | 0.00 | 0.00 | 0.00 | 66 | 1013.8 |
| 20260906035503 | 87 | 129 | 6.0 | 13.0 | 0.00 | 0.00 | 0.00 | 66 | 1013.8 |
| 20260906035024 | 87 | 127 | 6.0 | 13.0 | 0.00 | 0.00 | 0.00 | 65 | 1013.8 |
| 20260906034504 | 88 | 128 | 6.0 | 13.0 | 0.00 | 0.00 | 0.00 | 65 | 1013.9 |
| 20260906034003 | 88 | 132 | 7.0 | 13.0 | 0.00 | 0.00 | 0.00 | 65 | 1013.9 |
| 20260906033524 | 88 | 135 | 7.0 | 14.0 | 0.00 | 0.00 | 0.00 | 64 | 1013.8 |
| 20260906033003 | 88 | 128 | 6.0 | 14.0 | 0.00 | 0.00 | 0.00 | 64 | 1013.7 |
| 20260906032524 | 88 | 118 | 6.0 | 16.0 | 0.00 | 0.00 | 0.00 | 63 | 1013.6 |
| 20260906032003 | 88 | 120 | 6.0 | 16.0 | 0.00 | 0.00 | 0.00 | 63 | 1013.6 |
| 20260906031503 | 88 | 122 | 6.0 | 12.0 | 0.00 | 0.00 | 0.00 | 62 | 1013.5 |
| 20260906031003 | 89 | 118 | 6.0 | 12.0 | 0.00 | 0.00 | 0.00 | 61 | 1013.4 |
| 20260906030503 | 89 | 122 | 6.0 | 17.0 | 0.00 | 0.00 | 0.00 | 60 | 1013.2 |
| 20260906030003 | 89 | 122 | 7.0 | 17.0 | 0.00 | 0.00 | 0.00 | 60 | 1013.2 |
| 20260906025503 | 90 | 123 | 7.0 | 17.0 | 0.00 | 0.00 | 0.00 | 59 | 1013.1 |
| 20260906025003 | 90 | 129 | 7.0 | 18.0 | 0.00 | 0.00 | 0.00 | 58 | 1012.9 |
| 20260906024503 | 90 | 132 | 6.0 | 18.0 | 0.00 | 0.00 | 0.00 | 57 | 1012.8 |
| 20260906024003 | 90 | 132 | 5.0 | 11.0 | 0.00 | 0.00 | 0.00 | 56 | 1012.7 |
| 20260906023503 | 90 | 123 | 5.0 | 11.0 | 0.00 | 0.00 | 0.00 | 56 | 1012.7 |
| 20260906023003 | 90 | 124 | 6.0 | 11.0 | 0.00 | 0.00 | 0.00 | 56 | 1012.3 |
| 20260906022503 | 91 | 130 | 6.0 | 13.0 | 0.00 | 0.00 | 0.00 | 55 | 1012.2 |
| 20260906022003 | 91 | 131 | 6.0 | 13.0 | 0.00 | 0.00 | 0.00 | 55 | 1012.1 |
| 20260906021503 | 91 | 129 | 7.0 | 18.0 | 0.00 | 0.00 | 0.00 | 55 | 1012.0 |
| 20260906021003 | 91 | 130 | 6.0 | 18.0 | 0.00 | 0.00 | 0.00 | 54 | 1011.9 |
| 20260906020503 | 91 | 129 | 4.0 | 12.0 | 0.00 | 0.00 | 0.00 | 54 | 1011.8 |
| 20260906020024 | 92 | 119 | 4.0 | 7.0 | 0.00 | 0.00 | 0.00 | 53 | 1011.8 |
| 20260906015524 | 92 | 117 | 4.0 | 8.0 | 0.00 | 0.00 | 0.00 | 52 | 1011.7 |
| 20260906015004 | 92 | 115 | 2.0 | 8.0 | 0.00 | 0.00 | 0.00 | 52 | 1011.7 |
| 20260906014503 | 92 | 110 | 4.0 | 10.0 | 0.00 | 0.00 | 0.00 | 52 | 1011.7 |
| 20260906014003 | 92 | 112 | 5.0 | 10.0 | 0.00 | 0.00 | 0.00 | 52 | 1011.7 |
| 20260906013503 | 93 | 106 | 4.0 | 11.0 | 0.00 | 0.00 | 0.00 | 51 | 1011.5 |
| 20260906013003 | 93 | 95 | 4.0 | 11.0 | 0.00 | 0.00 | 0.00 | 51 | 1011.5 |
| 20260906012503 | 93 | 84 | 4.0 | 8.0 | 0.00 | 0.00 | 0.00 | 51 | 1011.5 |
| 20260906012003 | 94 | 83 | 5.0 | 10.0 | 0.00 | 0.00 | 0.00 | 50 | 1011.4 |
| 20260906011503 | 94 | 92 | 6.0 | 11.0 | 0.00 | 0.00 | 0.00 | 50 | 1011.4 |
| 20260906011024 | 94 | 97 | 6.0 | 14.0 | 0.00 | 0.00 | 0.00 | 49 | 1011.4 |
| 20260906010503 | 94 | 106 | 8.0 | 18.0 | 0.00 | 0.00 | 0.00 | 48 | 1011.4 |
| 20260906010004 | 95 | 113 | 7.0 | 18.0 | 0.00 | 0.00 | 0.00 | 47 | 1011.4 |
| 20260906005504 | 95 | 114 | 6.0 | 12.0 | 0.00 | 0.00 | 0.00 | 46 | 1011.4 |
| 20260906005004 | 96 | 109 | 7.0 | 16.0 | 0.00 | 0.00 | 0.00 | 45 | 1011.3 |
| 20260906004504 | 96 | 106 | 7.0 | 18.0 | 0.00 | 0.00 | 0.00 | 45 | 1011.2 |
| 20260906004004 | 96 | 108 | 8.0 | 18.0 | 0.00 | 0.00 | 0.00 | 44 | 1011.2 |
| 20260906003504 | 97 | 107 | 7.0 | 17.0 | 0.00 | 0.00 | 0.00 | 43 | 1011.3 |
| 20260906003025 | 97 | 109 | 7.0 | 19.0 | 0.00 | 0.00 | 0.00 | 43 | 1011.3 |
| 20260906002504 | 98 | 108 | 8.0 | 19.0 | 0.00 | 0.00 | 0.00 | 42 | 1011.1 |
| 20260906002004 | 98 | 102 | 7.0 | 18.0 | 0.00 | 0.00 | 0.00 | 41 | 1011.0 |
| 20260906001504 | 98 | 87 | 5.0 | 18.0 | 0.00 | 0.00 | 0.00 | 39 | 1011.1 |
| 20260906001025 | 99 | 58 | 4.0 | 12.0 | 0.00 | 0.00 | 0.00 | 39 | 1011.0 |
| 20260906000504 | 99 | 70 | 5.0 | 11.0 | 0.00 | 0.00 | 0.00 | 38 | 1010.9 |
| 20260906000004 | 99 | 93 | 5.0 | 11.0 | 0.00 | 0.00 | 0.00 | 38 | 1011.0 |
| 20260905235504 | 99 | 93 | 5.0 | 11.0 | 0.00 | 0.00 | 0.00 | 37 | 1011.0 |
| 20260905235004 | 100 | 87 | 5.0 | 11.0 | 0.00 | 0.00 | 0.00 | 37 | 1010.9 |
| 20260905234504 | 100 | 88 | 5.0 | 10.0 | 0.00 | 0.00 | 0.00 | 36 | 1010.9 |
| 20260905234025 | 100 | 91 | 5.0 | 11.0 | 0.00 | 0.00 | 0.00 | 37 | 1010.9 |
| 20260905233504 | 100 | 100 | 5.0 | 17.0 | 0.00 | 0.00 | 0.00 | 36 | 1010.9 |
| 20260905233004 | 101 | 113 | 4.0 | 17.0 | 0.00 | 0.00 | 0.00 | 36 | 1010.8 |
| 20260905232504 | 101 | 136 | 4.0 | 13.0 | 0.00 | 0.00 | 0.00 | 34 | 1010.8 |
| 20260905232004 | 101 | 151 | 5.0 | 12.0 | 0.00 | 0.00 | 0.00 | 35 | 1010.8 |
| 20260905231504 | 102 | 167 | 5.0 | 12.0 | 0.00 | 0.00 | 0.00 | 34 | 1010.9 |
| 20260905231004 | 102 | 184 | 4.0 | 10.0 | 0.00 | 0.00 | 0.00 | 33 | 1010.9 |
| 20260905230525 | 102 | 189 | 4.0 | 8.0 | 0.00 | 0.00 | 0.00 | 33 | 1010.9 |
| 20260905230004 | 102 | 175 | 4.0 | 8.0 | 0.00 | 0.00 | 0.00 | 33 | 1011.0 |
| 20260905225504 | 102 | 161 | 5.0 | 14.0 | 0.00 | 0.00 | 0.00 | 33 | 1010.8 |
| 20260905225004 | 103 | 150 | 5.0 | 14.0 | 0.00 | 0.00 | 0.00 | 33 | 1010.8 |
| 20260905224504 | 103 | 135 | 5.0 | 14.0 | 0.00 | 0.00 | 0.00 | 33 | 1010.8 |
| 20260905224004 | 103 | 151 | 6.0 | 14.0 | 0.00 | 0.00 | 0.00 | 32 | 1010.8 |
| 20260905223504 | 103 | 169 | 5.0 | 10.0 | 0.00 | 0.00 | 0.00 | 32 | 1010.8 |
| 20260905223004 | 104 | 170 | 6.0 | 11.0 | 0.00 | 0.00 | 0.00 | 32 | 1010.8 |
| 20260905222504 | 104 | 164 | 5.0 | 11.0 | 0.00 | 0.00 | 0.00 | 32 | 1010.9 |
| 20260905222004 | 104 | 159 | 2.0 | 8.0 | 0.00 | 0.00 | 0.00 | 32 | 1011.0 |
| 20260905221504 | 104 | 117 | 4.0 | 10.0 | 0.00 | 0.00 | 0.00 | 31 | 1011.0 |
| 20260905221025 | 104 | 120 | 5.0 | 11.0 | 0.00 | 0.00 | 0.00 | 32 | 1011.1 |
| 20260905220504 | 104 | 108 | 4.0 | 11.0 | 0.00 | 0.00 | 0.00 | 32 | 1011.1 |
| 20260905220004 | 104 | 67 | 4.0 | 10.0 | 0.00 | 0.00 | 0.00 | 32 | 1011.2 |
| 20260905215504 | 104 | 61 | 4.0 | 10.0 | 0.00 | 0.00 | 0.00 | 33 | 1011.2 |
| 20260905215004 | 104 | 140 | 4.0 | 8.0 | 0.00 | 0.00 | 0.00 | 33 | 1011.2 |
| 20260905214525 | 104 | 158 | 6.0 | 13.0 | 0.00 | 0.00 | 0.00 | 32 | 1011.2 |
| 20260905214025 | 104 | 162 | 6.0 | 13.0 | 0.00 | 0.00 | 0.00 | 32 | 1011.2 |
| 20260905213504 | 104 | 166 | 6.0 | 12.0 | 0.00 | 0.00 | 0.00 | 32 | 1011.1 |
| 20260905213004 | 104 | 162 | 7.0 | 13.0 | 0.00 | 0.00 | 0.00 | 33 | 1011.2 |
| 20260905212525 | 104 | 177 | 5.0 | 13.0 | 0.00 | 0.00 | 0.00 | 32 | 1011.1 |
| 20260905212003 | 104 | 189 | 4.0 | 7.0 | 0.00 | 0.00 | 0.00 | 34 | 1011.3 |
| 20260905211525 | 104 | 173 | 5.0 | 11.0 | 0.00 | 0.00 | 0.00 | 33 | 1011.3 |
| 20260905211004 | 104 | 159 | 4.0 | 11.0 | 0.00 | 0.00 | 0.00 | 34 | 1011.4 |
| 20260905210504 | 103 | 135 | 5.0 | 11.0 | 0.00 | 0.00 | 0.00 | 33 | 1011.5 |
| 20260905210004 | 103 | 153 | 4.0 | 11.0 | 0.00 | 0.00 | 0.00 | 33 | 1011.6 |
| 20260905205504 | 104 | 133 | 4.0 | 11.0 | 0.00 | 0.00 | 0.00 | 33 | 1011.7 |
| 20260905205025 | 104 | 121 | 4.0 | 13.0 | 0.00 | 0.00 | 0.00 | 33 | 1011.7 |
| 20260905204503 | 104 | 135 | 6.0 | 13.0 | 0.00 | 0.00 | 0.00 | 33 | 1011.9 |
| 20260905204004 | 104 | 138 | 7.0 | 13.0 | 0.00 | 0.00 | 0.00 | 34 | 1012.0 |
| 20260905203504 | 104 | 154 | 6.0 | 13.0 | 0.00 | 0.00 | 0.00 | 34 | 1011.9 |
| 20260905203025 | 104 | 155 | 6.0 | 12.0 | 0.00 | 0.00 | 0.00 | 34 | 1012.1 |
| 20260905202504 | 104 | 153 | 5.0 | 11.0 | 0.00 | 0.00 | 0.00 | 33 | 1012.2 |
| 20260905202004 | 104 | 147 | 5.0 | 10.0 | 0.00 | 0.00 | 0.00 | 34 | 1012.4 |
| 20260905201504 | 103 | 121 | 5.0 | 12.0 | 0.00 | 0.00 | 0.00 | 34 | 1012.4 |
| 20260905201004 | 103 | 155 | 6.0 | 12.0 | 0.00 | 0.00 | 0.00 | 35 | 1012.5 |
| 20260905200504 | 103 | 195 | 6.0 | 13.0 | 0.00 | 0.00 | 0.00 | 36 | 1012.5 |
| 20260905200004 | 103 | 194 | 7.0 | 16.0 | 0.00 | 0.00 | 0.00 | 33 | 1012.7 |
| 20260905195504 | 103 | 193 | 5.0 | 16.0 | 0.00 | 0.00 | 0.00 | 34 | 1012.8 |
| 20260905195004 | 102 | 167 | 4.0 | 12.0 | 0.00 | 0.00 | 0.00 | 33 | 1012.8 |
| 20260905194504 | 102 | 174 | 5.0 | 13.0 | 0.00 | 0.00 | 0.00 | 35 | 1012.9 |
| 20260905194004 | 102 | 203 | 5.0 | 13.0 | 0.00 | 0.00 | 0.00 | 35 | 1013.1 |
| 20260905193504 | 102 | 226 | 4.0 | 8.0 | 0.00 | 0.00 | 0.00 | 37 | 1013.0 |
| 20260905193004 | 102 | 207 | 4.0 | 11.0 | 0.00 | 0.00 | 0.00 | 36 | 1013.1 |
| 20260905192504 | 102 | 192 | 4.0 | 11.0 | 0.00 | 0.00 | 0.00 | 36 | 1013.2 |
| 20260905192003 | 102 | 155 | 5.0 | 11.0 | 0.00 | 0.00 | 0.00 | 38 | 1013.2 |
| 20260905191504 | 102 | 130 | 5.0 | 12.0 | 0.00 | 0.00 | 0.00 | 38 | 1013.3 |
| 20260905191025 | 102 | 140 | 5.0 | 12.0 | 0.00 | 0.00 | 0.00 | 38 | 1013.3 |
| 20260905190503 | 102 | 163 | 5.0 | 12.0 | 0.00 | 0.00 | 0.00 | 36 | 1013.6 |
| 20260905190024 | 102 | 155 | 4.0 | 12.0 | 0.00 | 0.00 | 0.00 | 36 | 1013.7 |
| 20260905185504 | 102 | 175 | 5.0 | 12.0 | 0.00 | 0.00 | 0.00 | 36 | 1013.8 |
| 20260905185003 | 102 | 183 | 5.0 | 12.0 | 0.00 | 0.00 | 0.00 | 35 | 1014.0 |
| 20260905184504 | 101 | 185 | 5.0 | 13.0 | 0.00 | 0.00 | 0.00 | 40 | 1014.0 |
| 20260905184003 | 100 | 168 | 7.0 | 16.0 | 0.00 | 0.00 | 0.00 | 39 | 1014.1 |
| 20260905183504 | 100 | 165 | 6.0 | 16.0 | 0.00 | 0.00 | 0.00 | 38 | 1014.2 |
| 20260905183004 | 100 | 188 | 5.0 | 12.0 | 0.00 | 0.00 | 0.00 | 39 | 1014.2 |
| 20260905182504 | 100 | 189 | 6.0 | 14.0 | 0.00 | 0.00 | 0.00 | 39 | 1014.3 |
| 20260905182024 | 100 | 162 | 6.0 | 16.0 | 0.00 | 0.00 | 0.00 | 41 | 1014.5 |
| 20260905181504 | 99 | 141 | 6.0 | 16.0 | 0.00 | 0.00 | 0.00 | 40 | 1014.5 |
| 20260905181004 | 99 | 139 | 6.0 | 12.0 | 0.00 | 0.00 | 0.00 | 43 | 1014.6 |
| 20260905180504 | 98 | 171 | 5.0 | 12.0 | 0.00 | 0.00 | 0.00 | 45 | 1014.7 |
| 20260905180003 | 98 | 176 | 5.0 | 12.0 | 0.00 | 0.00 | 0.00 | 46 | 1014.7 |
| 20260905175504 | 97 | 157 | 6.0 | 12.0 | 0.00 | 0.00 | 0.00 | 49 | 1014.8 |
| 20260905175003 | 96 | 166 | 5.0 | 12.0 | 0.00 | 0.00 | 0.00 | 48 | 1015.0 |
| 20260905174524 | 96 | 186 | 2.0 | 11.0 | 0.00 | 0.00 | 0.00 | 50 | 1015.1 |
| 20260905174004 | 96 | 182 | 4.0 | 12.0 | 0.00 | 0.00 | 0.00 | 49 | 1015.2 |
| 20260905173503 | 95 | 177 | 5.0 | 12.0 | 0.00 | 0.00 | 0.00 | 51 | 1015.3 |
| 20260905173004 | 95 | 178 | 5.0 | 12.0 | 0.00 | 0.00 | 0.00 | 51 | 1015.3 |
| 20260905172525 | 94 | 169 | 5.0 | 12.0 | 0.00 | 0.00 | 0.00 | 51 | 1015.4 |
| 20260905172004 | 94 | 158 | 5.0 | 11.0 | 0.00 | 0.00 | 0.00 | 51 | 1015.6 |
| 20260905171503 | 93 | 156 | 6.0 | 13.0 | 0.00 | 0.00 | 0.00 | 53 | 1015.7 |
| 20260905171004 | 93 | 147 | 7.0 | 13.0 | 0.00 | 0.00 | 0.00 | 52 | 1015.7 |
| 20260905170503 | 93 | 152 | 5.0 | 11.0 | 0.00 | 0.00 | 0.00 | 56 | 1015.6 |
| 20260905170003 | 92 | 191 | 4.0 | 10.0 | 0.00 | 0.00 | 0.00 | 58 | 1015.8 |
| 20260905165504 | 91 | 191 | 5.0 | 11.0 | 0.00 | 0.00 | 0.00 | 59 | 1015.7 |